Wind_Speed
10 10 10 10 10 10 11 11 11 10 9 9 9 7 6 7 9 12 13 13 11 11 11 12 13 14 12 17 34 38 27 17 17 20 18 5 9 20 26 26 26 14 9 9 12
10 10 11 11 10 11 12 12 11 10 10 11 10 9 7 7 9 9 12 13 11 12 12 13 14 13 13 14 31 41 30 22 22 23 14 4 16 18 20 20 24 4 7 2 11
8 9 10 10 11 12 13 14 14 12 12 12 12 10 8 9 9 9 9 10 11 12 12 12 10 11 12 14 27 42 31 28 25 27 23 3 19 20 19 22 23 10 11 15 13
8 8 8 9 9 11 12 14 15 15 14 14 13 11 10 10 10 10 10 11 11 13 13 13 12 13 14 12 28 43 34 33 31 28 27 22 18 24 25 27 29 26 15 10 13
7 7 7 8 8 9 11 12 14 16 17 16 14 13 13 12 12 12 11 10 12 12 13 13 12 13 13 16 25 43 38 37 36 29 27 25 22 18 26 25 26 29 27 17 12
9 8 9 9 9 9 10 11 13 15 17 17 15 15 14 14 16 13 13 12 12 13 13 14 16 17 17 20 22 41 44 42 39 33 33 30 28 30 33 32 36 38 38 24 16
9 9 10 11 11 11 12 11 12 14 15 16 16 15 16 12 18 14 14 13 14 14 15 18 19 17 19 20 22 29 40 41 42 40 27 28 32 33 32 36 38 39 32 23 17
8 9 10 11 12 12 12 13 13 12 15 14 13 15 17 15 17 17 16 16 16 16 18 20 19 18 17 17 19 21 23 26 31 25 25 22 18 19 29 31 32 31 24 14 18
7 8 9 10 10 11 11 11 12 13 12 13 15 16 17 17 17 17 18 18 18 18 20 22 18 18 19 21 22 19 13 14 17 17 14 18 14 12 22 22 30 27 19 15 13
5 7 7 8 9 10 9 9 9 9 11 12 14 16 17 18 19 19 20 20 20 21 22 22 22 22 23 23 16 16 14 21 19 8 9 11 14 10 13 19 19 20 20 15 11
3 4 5 7 8 9 9 9 9 7 9 7 9 14 17 19 20 21 24 23 22 23 23 25 24 20 23 22 21 22 21 26 25 16 16 22 15 15 16 19 24 23 18 13 15
4 5 5 5 6 6 6 7 6 7 10 8 7 11 9 14 18 22 22 23 23 23 26 26 18 22 26 26 25 26 26 28 30 21 19 19 14 16 23 26 26 23 18 17 16
6 7 8 8 8 8 8 7 8 6 6 10 10 13 11 8 11 17 18 22 22 22 25 23 16 28 27 28 28 24 29 30 31 23 17 21 20 21 22 29 30 28 23 19 17
8 8 10 10 11 11 12 10 10 9 10 10 15 15 17 15 13 17 17 20 22 21 26 20 22 23 28 30 30 32 28 33 32 32 30 28 33 28 26 30 31 32 29 24 22
11 11 11 12 12 13 14 13 12 14 17 14 17 14 15 18 20 23 21 20 20 23 28 15 22 25 30 25 28 30 32 38 39 41 41 38 39 34 33 33 36 34 31 30 27
14 13 13 13 13 13 13 13 14 17 20 23 20 19 19 18 19 23 24 24 24 27 31 21 26 32 30 30 31 32 34 40 42 44 49 46 48 46 43 39 39 41 40 32 30
14 13 13 13 13 14 15 15 14 20 23 25 23 22 19 17 17 21 23 27 28 30 28 31 30 32 33 36 34 36 36 37 40 42 47 41 53 52 45 40 35 39 44 41 35
13 13 14 15 15 15 15 16 18 23 21 21 23 21 22 24 25 24 26 27 25 31 36 38 37 32 33 38 36 37 40 41 43 45 40 36 49 48 37 30 31 39 36 35 37
12 14 15 15 15 16 17 21 21 23 19 19 22 23 21 25 28 25 29 32 36 39 43 42 44 39 39 35 36 38 45 40 46 43 43 47 45 44 39 38 41 41 42 42 41
13 14 15 16 16 17 20 22 23 20 19 20 22 27 25 24 27 31 34 36 37 40 44 44 46 41 38 43 42 42 37 45 50 51 50 54 49 45 36 36 40 44 45 43 37
11 12 15 16 17 16 16 20 21 18 17 19 21 25 26 25 24 27 35 39 39 40 44 47 48 46 40 37 42 42 46 45 47 49 53 54 54 46 40 36 42 45 47 46 45
12 12 17 17 18 17 18 20 23 24 27 28 29 31 32 33 33 35 38 42 39 41 43 50 53 55 51 43 41 45 46 51 52 55 48 49 51 51 48 43 42 47 49 55 56
16 15 19 19 21 23 26 28 30 31 33 36 39 40 42 44 44 45 45 47 47 48 47 49 57 58 55 51 47 50 49 49 59 60 59 50 49 50 52 50 51 46 46 46 36
16 16 16 20 22 25 28 32 36 37 40 42 43 45 48 50 53 55 55 55 57 57 59 59 59 59 63 60 58 54 54 56 56 62 67 62 60 53 51 56 53 46 42 46 46
19 21 23 24 26 30 34 36 38 42 44 47 50 53 54 57 59 62 66 68 68 67 69 71 70 69 67 68 67 63 57 61 60 60 68 68 66 63 61 59 59 54 50 52 50
23 26 29 30 32 36 40 42 45 48 52 57 60 64 65 67 69 67 70 74 75 77 79 79 79 82 78 76 75 74 67 63 70 70 68 68 69 70 67 63 63 59 56 58 62
29 32 35 37 40 45 48 51 54 58 62 64 64 62 58 60 63 65 70 73 75 78 82 85 84 86 87 86 85 81 74 72 74 76 75 73 71 68 70 69 65 61 58 56 58
Wind_Direction
239 243 242 239 237 237 236 235 236 235 234 231 231 222 213 211 208 215 215 219 215 215 212 207 209 209 209 198 182 167 154 158 152 149 137 227 264 273 277 284 301 290 281 236 228
236 239 241 240 242 244 243 241 238 236 233 232 229 223 212 206 212 218 218 223 217 219 212 210 209 201 203 198 185 169 165 169 165 145 125 198 248 258 272 290 288 277 126 188 237
238 241 245 244 242 241 241 239 238 238 237 235 233 226 221 219 216 214 232 229 222 227 223 220 209 195 205 191 182 171 174 184 174 161 136 231 251 255 275 280 279 224 221 283 291
248 249 253 254 253 251 246 243 240 238 238 238 237 232 228 228 224 220 220 227 226 226 227 226 217 202 196 176 184 178 185 191 189 175 165 171 248 258 273 270 282 283 265 251 289
254 258 263 262 261 258 256 248 244 240 239 239 238 235 233 231 232 218 219 223 231 230 230 230 227 217 206 186 192 188 193 196 202 203 190 182 195 243 253 268 277 286 292 289 266
259 263 264 265 262 263 262 255 248 243 241 239 239 235 233 227 233 225 223 224 226 227 229 226 225 220 216 206 199 196 207 208 212 216 212 206 209 226 246 260 271 279 287 289 308
269 268 265 264 263 260 257 258 259 250 244 240 237 236 232 221 229 223 231 233 232 230 228 228 231 229 229 230 214 204 212 221 221 217 231 227 227 241 253 258 262 266 273 285 302
271 268 265 263 262 261 259 255 256 259 252 247 239 234 232 218 229 227 226 232 233 234 231 233 235 236 245 242 240 235 229 237 241 246 245 248 238 229 232 240 248 261 261 276 288
276 271 266 265 264 261 259 257 256 255 257 251 243 241 240 230 230 237 237 237 241 238 238 241 239 236 232 236 240 243 251 236 217 226 237 247 234 220 237 240 240 242 253 256 263
280 274 274 271 268 264 260 255 253 253 251 248 247 247 247 245 239 240 244 244 240 238 241 243 241 237 239 239 248 249 235 224 207 191 245 255 220 262 263 254 257 228 233 233 263
286 285 280 276 271 268 264 258 254 248 252 252 245 246 243 245 248 241 241 246 243 245 246 244 244 245 243 239 232 232 227 230 224 175 238 227 247 259 273 266 257 244 240 251 278
283 276 276 278 281 285 277 271 273 257 267 248 242 255 249 242 240 249 248 250 248 246 247 250 250 241 238 236 231 231 227 228 221 210 251 242 235 257 269 264 258 257 254 257 267
283 279 277 275 276 278 279 285 283 273 262 279 261 255 258 251 251 252 250 248 248 245 249 247 229 233 228 229 225 228 235 230 229 212 226 231 224 247 261 257 260 264 262 262 270
296 289 284 280 276 275 274 273 275 279 274 267 261 253 258 254 249 254 250 248 247 244 247 243 233 236 238 236 237 224 227 225 226 209 215 223 230 224 245 256 253 259 267 271 275
296 294 285 280 277 274 274 277 279 275 270 253 255 259 263 262 260 251 251 250 251 248 249 237 229 239 238 229 241 244 224 224 230 219 219 211 230 228 240 247 265 273 274 280 279
288 284 279 276 275 275 276 277 276 272 266 262 262 258 256 244 256 266 264 252 246 251 257 242 239 237 245 245 230 232 228 224 229 239 231 221 225 234 236 250 263 265 269 275 273
284 283 279 282 284 282 282 280 273 261 265 278 280 282 278 264 250 252 257 260 256 251 248 253 238 243 242 245 248 246 244 241 242 241 243 233 231 244 244 253 262 263 265 269 266
286 285 287 286 287 288 284 278 270 276 279 285 285 287 280 275 271 270 267 258 259 259 253 247 239 242 242 248 244 247 245 247 253 254 261 256 248 246 252 247 225 237 247 252 257
291 293 294 292 290 288 286 279 279 280 288 288 285 275 270 275 277 272 272 270 267 263 260 253 247 226 235 238 245 243 240 239 248 255 262 259 253 255 255 254 244 229 240 250 256
294 294 296 299 301 299 292 289 286 286 283 278 273 276 279 272 266 269 267 265 265 269 271 269 268 262 240 244 237 237 236 235 241 248 251 260 264 259 257 258 245 244 254 253 255
298 307 302 304 303 301 296 294 298 303 302 296 289 284 284 280 273 263 261 264 265 264 268 272 272 269 266 252 253 241 245 236 239 246 256 264 264 269 264 256 249 250 254 259 253
306 310 306 304 301 301 300 302 303 306 304 299 294 291 289 287 280 275 272 270 270 268 261 263 269 271 268 264 265 256 245 243 242 246 250 251 257 262 267 259 247 248 255 258 258
310 318 314 313 310 307 304 301 300 298 295 294 292 289 288 286 282 279 273 273 271 268 264 260 259 269 271 268 260 254 252 247 240 244 245 250 250 258 257 252 254 253 256 256 223
310 314 312 310 307 305 305 303 301 298 295 293 290 287 285 282 280 276 273 273 271 266 264 261 258 259 263 265 261 255 252 252 251 250 249 252 255 255 259 258 257 258 260 266 267
312 313 312 308 307 306 307 307 305 302 299 296 294 291 288 284 280 278 276 274 270 267 265 263 261 256 256 260 259 256 251 252 251 252 252 249 253 257 254 258 264 262 261 265 269
304 310 312 309 310 308 309 307 305 300 299 297 295 293 289 285 282 277 272 268 267 263 261 258 257 255 253 252 253 254 251 249 249 251 249 250 253 255 256 256 260 262 264 264 268
307 305 309 311 310 309 309 308 304 303 301 299 297 291 285 280 277 274 271 268 267 262 257 257 252 250 250 249 246 249 249 245 244 245 246 246 247 251 255 257 260 264 268 271 272
Height
5878 5879 5880 5881 5882 5883 5884 5885 5886 5887 5888 5889 5890 5891 5891 5892 5893 5893 5893 5895 5895 5895 5897 5899 5901 5901 5903 5905 5908 5916 5919 5921 5920 5919 5916 5923 5925 5925 5922 5922 5924 5923 5923 5923 5923
5876 5877 5878 5879 5880 5881 5882 5882 5884 5885 5886 5887 5888 5889 5890 5891 5891 5892 5893 5892 5894 5894 5895 5897 5898 5901 5902 5904 5907 5912 5916 5918 5918 5915 5913 5920 5920 5921 5920 5918 5920 5923 5922 5921 5923
5874 5875 5875 5876 5877 5878 5879 5880 5881 5882 5884 5885 5886 5887 5889 5889 5890 5891 5891 5892 5893 5893 5894 5895 5898 5901 5902 5904 5907 5911 5914 5915 5915 5912 5911 5916 5918 5917 5916 5915 5916 5923 5919 5918 5917
5872 5872 5873 5873 5874 5875 5876 5877 5878 5879 5881 5882 5883 5885 5887 5888 5890 5889 5889 5890 5891 5892 5893 5893 5896 5898 5900 5904 5905 5909 5910 5912 5912 5910 5909 5915 5914 5914 5913 5912 5912 5914 5919 5918 5916
5870 5870 5870 5871 5871 5872 5872 5873 5874 5875 5877 5878 5880 5882 5884 5885 5886 5886 5887 5888 5889 5890 5891 5891 5894 5896 5898 5901 5904 5907 5907 5909 5909 5909 5908 5910 5913 5911 5911 5910 5908 5909 5910 5914 5915
5867 5867 5868 5868 5868 5869 5869 5870 5870 5871 5872 5874 5877 5879 5881 5882 5882 5883 5884 5885 5887 5888 5889 5890 5890 5891 5894 5896 5901 5905 5902 5904 5906 5906 5907 5907 5909 5910 5908 5908 5906 5906 5906 5907 5909
5864 5864 5865 5865 5866 5866 5866 5866 5867 5868 5869 5870 5873 5875 5876 5879 5878 5880 5881 5882 5884 5885 5886 5886 5886 5889 5890 5891 5895 5899 5898 5899 5901 5903 5905 5906 5907 5908 5908 5905 5903 5903 5903 5903 5905
5862 5862 5862 5863 5862 5862 5862 5863 5864 5865 5866 5867 5869 5871 5871 5874 5875 5876 5878 5879 5880 5881 5882 5883 5884 5886 5888 5890 5892 5894 5898 5899 5900 5902 5903 5902 5906 5905 5903 5901 5898 5899 5901 5904 5901
5859 5859 5860 5859 5859 5859 5859 5860 5860 5861 5863 5864 5866 5866 5868 5870 5871 5873 5874 5875 5876 5877 5878 5878 5881 5883 5885 5886 5888 5891 5895 5897 5898 5899 5898 5899 5901 5899 5898 5900 5899 5900 5901 5903 5903
5857 5857 5856 5856 5856 5856 5857 5857 5857 5858 5859 5860 5861 5864 5864 5865 5867 5868 5868 5870 5871 5872 5873 5875 5877 5879 5880 5883 5887 5888 5889 5889 5889 5892 5892 5893 5896 5894 5896 5896 5895 5898 5901 5903 5903
5855 5855 5854 5854 5854 5854 5855 5855 5856 5856 5855 5856 5857 5857 5858 5859 5860 5863 5863 5864 5866 5867 5868 5868 5872 5876 5876 5878 5880 5881 5882 5884 5886 5886 5884 5884 5887 5889 5891 5892 5891 5893 5898 5899 5899
5853 5853 5853 5853 5853 5853 5853 5852 5853 5854 5853 5853 5854 5853 5854 5854 5856 5855 5858 5860 5860 5862 5861 5864 5870 5868 5868 5870 5873 5873 5874 5878 5879 5879 5878 5880 5880 5883 5884 5886 5885 5888 5892 5894 5895
5851 5851 5851 5851 5851 5850 5850 5850 5850 5850 5851 5850 5851 5850 5850 5852 5852 5852 5853 5853 5854 5855 5855 5857 5862 5857 5860 5862 5864 5867 5868 5872 5874 5872 5873 5874 5872 5876 5878 5880 5878 5880 5885 5888 5890
5849 5848 5848 5848 5848 5847 5846 5846 5846 5846 5847 5849 5846 5846 5845 5847 5848 5847 5848 5849 5849 5851 5848 5853 5853 5854 5855 5856 5859 5859 5862 5864 5865 5866 5866 5868 5867 5868 5872 5873 5873 5875 5878 5881 5883
5845 5844 5844 5843 5843 5843 5842 5842 5842 5842 5842 5843 5841 5842 5843 5844 5842 5841 5843 5844 5845 5844 5842 5850 5848 5848 5846 5851 5853 5855 5857 5856 5855 5858 5857 5859 5860 5864 5865 5865 5865 5867 5870 5873 5876
5841 5840 5839 5838 5838 5838 5838 5838 5838 5837 5833 5833 5836 5837 5839 5839 5838 5835 5837 5838 5838 5837 5835 5843 5842 5839 5843 5844 5843 5844 5844 5846 5845 5847 5846 5853 5853 5853 5858 5862 5863 5860 5861 5865 5867
5835 5835 5835 5834 5834 5833 5833 5833 5833 5829 5828 5828 5830 5831 5832 5831 5832 5829 5828 5827 5830 5829 5831 5830 5834 5834 5835 5835 5840 5838 5838 5837 5836 5836 5833 5845 5844 5843 5853 5858 5857 5854 5853 5855 5856
5832 5831 5830 5829 5828 5828 5827 5827 5826 5824 5825 5823 5822 5824 5824 5823 5823 5823 5822 5822 5821 5818 5817 5818 5822 5826 5829 5826 5831 5831 5831 5828 5825 5826 5830 5833 5826 5833 5845 5846 5844 5841 5842 5843 5845
5828 5827 5826 5825 5823 5822 5822 5820 5820 5820 5822 5820 5818 5817 5819 5817 5817 5818 5813 5812 5809 5807 5806 5806 5806 5813 5812 5816 5818 5822 5818 5823 5817 5818 5815 5815 5819 5823 5829 5832 5833 5833 5832 5834 5834
5825 5823 5822 5820 5819 5818 5817 5815 5814 5817 5816 5815 5814 5810 5811 5812 5811 5809 5806 5803 5801 5800 5795 5797 5796 5802 5811 5807 5807 5805 5812 5811 5809 5807 5804 5802 5807 5812 5818 5821 5821 5821 5823 5824 5826
5822 5820 5818 5816 5815 5814 5812 5809 5809 5810 5810 5809 5807 5804 5803 5804 5803 5799 5793 5792 5792 5793 5789 5787 5786 5789 5796 5801 5802 5802 5797 5799 5799 5798 5794 5793 5794 5801 5804 5807 5808 5810 5811 5813 5816
5817 5817 5813 5812 5811 5809 5807 5805 5804 5803 5801 5800 5798 5796 5794 5793 5791 5788 5785 5781 5784 5782 5781 5777 5772 5770 5776 5787 5790 5790 5792 5789 5785 5784 5785 5783 5785 5788 5789 5794 5795 5796 5799 5799 5801
5812 5812 5808 5807 5804 5802 5800 5798 5797 5795 5793 5790 5787 5786 5782 5779 5777 5773 5772 5770 5769 5767 5765 5764 5758 5755 5759 5767 5771 5773 5776 5774 5771 5771 5770 5773 5775 5776 5780 5779 5780 5783 5784 5784 5761
5807 5807 5805 5802 5799 5796 5793 5789 5787 5784 5781 5777 5775 5773 5769 5765 5761 5757 5755 5753 5748 5748 5745 5745 5746 5743 5741 5745 5749 5755 5760 5760 5759 5758 5759 5757 5765 5771 5767 5764 5772 5778 5777 5777 5776
5802 5799 5799 5796 5793 5789 5785 5781 5777 5771 5768 5763 5759 5754 5751 5748 5744 5738 5731 5729 5728 5725 5721 5719 5724 5722 5725 5725 5724 5732 5741 5743 5742 5743 5739 5746 5747 5754 5754 5754 5756 5760 5762 5763 5769
5796 5793 5790 5788 5784 5779 5775 5770 5765 5759 5755 5748 5742 5733 5727 5720 5714 5711 5706 5700 5700 5697 5691 5688 5693 5688 5701 5700 5700 5703 5717 5722 5723 5722 5723 5728 5732 5732 5737 5742 5744 5749 5753 5758 5756
5788 5785 5782 5777 5771 5767 5761 5754 5748 5741 5733 5726 5720 5710 5702 5695 5688 5680 5671 5669 5661 5658 5659 5655 5657 5657 5667 5670 5672 5682 5696 5698 5696 5699 5703 5707 5714 5720 5721 5725 5732 5736 5740 5743 5747